Miscellaneous Local Product
Issued by NWS North Platte, NE

Home | Current Version | Previous Version | Graphics & Text | Print | Product List | Glossary On
Versions: 1 2 3 4 5 6 7 8 9 10 11 12 13 14 15 16 17 18 19 20 21 22 23 24 25 26 27 28 29 30 31 32 33 34 35 36 37 38 39 40 41 42 43 44 45 46 47 48 49 50
382
AXUS43 KLBF 111510
MISLBF


WESTERN AND NORTH CENTRAL NEBRASKA HOURLY WEATHER ROUNDUP
NATIONAL WEATHER SERVICE NORTH PLATTE NE
900 AM CST THU FEB 11 2016

NOTE: "FAIR" INDICATES FEW OR NO CLOUDS BELOW 12,000 FEET WITH NO
SIGNIFICANT WEATHER AND/OR OBSTRUCTIONS TO VISIBILITY.

NOTE: STATIONS NOT REPORTING VARIABLES SUCH AS SKY/WEATHER OR
PRESSURE ARE PROVIDED BY THE NEBRASKA DEPARTMENT OF
ROADS...RAWS...AND APRS NETWORKS...AND ARE NOT UNDER
NATIONAL WEATHER SERVICE QUALITY CONTROL.

...OBSERVATIONS IN AND NEAR THE EASTERN PANHANDLE OF NEBRASKA...

CITY           SKY/WX    TMP DP  RH WIND       PRES   REMARKS
PINE RIDGE     CLOUDY    38  27  64 W6        30.01F WCI  33
CHADRON        CLOUDY    33  28  81 W7        30.04R WCI  27
ALLIANCE       CLOUDY    34  28  79 W9        30.04R WCI  27
SIDNEY         CLOUDY    41  25  53 W13       30.09S
BIG SPRINGS      N/A     34  29  83 W6          N/A  WCI  29
$$

...OBSERVATIONS IN NORTH CENTRAL NEBRASKA...

CITY           SKY/WX    TMP DP  RH WIND       PRES   REMARKS
VALENTINE      CLOUDY    29  28  96 SE7       30.08F FOG     WCI  22
THEDFORD       CLOUDY    30  30  99 S9        30.09S FOG     WCI  22
AINSWORTH      CLOUDY    28  28  96 SE7       30.10S FOG     WCI  21
O`NEILL        CLOUDY    24  23  94 SE7       30.17R WCI  16
ORD            CLOUDY    26  24  92 SE8       30.16F FOG     WCI  18
BROKEN BOW     CLOUDY    30  28  92 S7        30.14S WCI  23
VALENTINE NWR    N/A     28  28  99 SE7         N/A  WCI  21
BUTTE            N/A     20  19  94 SE9         N/A  WCI   9
HALSEY           N/A     29  29  99 S6          N/A  WCI  23
CHAMBERS         N/A     26  24  91 SE3         N/A
EWING            N/A     20  19  93 S5          N/A  WCI  14
$$

...OBSERVATIONS IN SOUTHWEST NEBRASKA AND FAR NORTHEAST COLORADO...

CITY           SKY/WX    TMP DP  RH WIND       PRES   REMARKS
HOLYOKE        FAIR      36  30  80 W9        30.10S WCI  29
IMPERIAL       CLOUDY    28  23  81 SW6       30.11F WCI  22
OGALLALA       PTSUNNY   30  26  88 W3        30.08F
NORTH PLATTE   PTSUNNY   27  24  89 S8        30.13F WCI  19
MCCOOK         FOG       25  24  96 S8        30.16F VSB<1/4 WCI  16
LEXINGTON      CLOUDY    30  28  91 S6        30.18R FOG     WCI  24
PAXTON           N/A     29  27  92 CALM        N/A
STAPLETON        N/A     27  26  96 CALM        N/A
GOTHENBURG       N/A     28  27  96 SE6         N/A  WCI  22
CALLAWAY         N/A     27  26  97 S12         N/A  WCI  17
$$

...OBSERVATIONS IN CENTRAL LINCOLN COUNTY AREA...

CITY           SKY/WX    TMP DP  RH WIND       PRES   REMARKS
N.P. AIRPORT   PTSUNNY   27  24  89 S8        30.13F WCI  19
N.P. DOWNTOWN    N/A     28  27  96 CALM        N/A
N.P. SOUTHEAST   N/A     27  26  94 S3          N/A
N.P. HILLCREST   N/A     27  26  96 S3          N/A
$$

...SOME OBSERVATIONS FROM AROUND THE REGION...

CITY           SKY/WX    TMP DP  RH WIND       PRES   REMARKS
DENVER         CLOUDY    41  19  41 SW10      30.15R
LARAMIE        CLOUDY    36  17  46 SE3       30.20R
CHEYENNE       CLOUDY    45  16  31 W23G33    30.11F
SCOTTSBLUFF    PTSUNNY   36  26  67 NW8       30.08R WCI  30
RAPID CITY     FOG       28  27  96 CALM      30.00R VSB<1/4
BISMARCK       LGT SNOW  20  15  81 E6        30.12S VSB 1   WCI  12
PIERRE         LGT SNOW  24  21  88 SE13      30.08F FOG     WCI  12
WINNER         CLOUDY    29  24  82 SE10      30.11F WCI  20
SIOUX FALLS    CLOUDY    14   5  67 SE9       30.24F WCI   2
OMAHA          CLOUDY    15   4  61 E7        30.31F WCI   5
GRAND ISLAND   CLOUDY    24  22  91 SE8       30.23S FOG     WCI  15
KANSAS CITY    PTSUNNY   23  19  85 CALM      30.29R
WICHITA        MOSUNNY   30  22  72 N15       30.23R WCI  19
OKLAHOMA CITY  PTSUNNY   43  32  65 N12       30.16R
LIBERAL        SUNNY     34  27  75 NW6       30.21S WCI  29
HAYS           CLOUDY    27  18  69 NE6       30.23F WCI  20
GOODLAND       CLOUDY    35  24  64 SW10      30.15R WCI  27
$$




USA.gov is the U.S. government's official web portal to all federal, state and local government web resources and services.